Regional Weather Roundup
Issued by NWS

Home | Current Version | Previous Version | Text Only | Print | Product List | Glossary Off
Versions: 1 2 3 4 5 6 7 8 9 10 11 12 13 14 15 16 17 18 19 20 21 22 23 24 25 26 27 28 29 30 31 32 33 34 35 36 37 38 39 40 41 42 43 44 45 46 47 48 49 50

181
ASUS44 KMEG 240310
RWRTN
TENNESSEE HOURLY STATE WEATHER ROUNDUP
NATIONAL WEATHER SERVICE MEMPHIS TN
1000 PM CDT WED MAY 23 2018

TNZ002-004-019-021-049-052-054-088>092-240400-
WEST TENNESSEE

CITY           SKY/WX    TMP DP  RH WIND       PRES   REMARKS
MEMPHIS INTL   CLOUDY    76  72  87 S3        30.08S
NWS MEMPHIS      N/A     76 N/A N/A MISG        N/A
JACKSON        FAIR      73  71  93 CALM      30.08S
DYERSBURG      FAIR      77  69  76 CALM      30.09R
COVINGTON      PTCLDY    77  72  83 CALM      30.07S
BOLIVAR        PTCLDY    73  72  94 CALM      30.08R
PARIS          CLEAR     73  66  78 N3        30.10S
HUNTINGDON     CLEAR     75  66  73 NE5       30.09R
LEXINGTON      CLEAR     70  70 100 CALM      30.08S
SELMER         CLEAR     72  70  94 CALM      30.08S
SAVANNAH       PTCLDY    72  72 100 CALM      30.08R
$$

TNZ008-025-027-028-033-062-065-066-240400-
NORTH MIDDLE TENNESSEE

CITY           SKY/WX    TMP DP  RH WIND       PRES   REMARKS
NASHVILLE      MOCLDY    77  64  64 CALM      30.11R
DICKSON        PTCLDY    70  68  94 CALM      30.11S
PORTLAND       CLEAR     73  68  83 CALM      30.11S
CLARKSVILLE    FAIR      73  64  73 CALM      30.11R
SMYRNA         FAIR      72  65  78 CALM      30.11R
MURFREESBORO   MOCLDY    75  64  69 CALM      30.09R
COOKEVILLE     CLEAR     66  64  94 CALM      30.12R
LIVINGSTON     CLEAR     72  64  78 N6        30.13R
CROSSVILLE     FAIR      70  62  76 CALM      30.16R
ROCKWOOD       PTCLDY    72  63  73 N6        30.13R
$$

TNZ061-075-076-078-094-096-097-240400-
SOUTH MIDDLE TENNESSEE

CITY           SKY/WX    TMP DP  RH WIND       PRES   REMARKS
LEWISBURG      PTCLDY    70  66  88 CALM      30.10R
FAYETTEVILLE   CLEAR     75  64  69 N6        30.10R
TULLAHOMA      CLEAR     72  66  83 CALM      30.11R
WINCHESTER     CLEAR     72  68  88 CALM      30.10R
MCMINNVILLE    CLEAR     70  64  83 CALM      30.11S
COLUMBIA       PTCLDY    73  73 100 CALM      30.09R
SHELBYVILLE    CLEAR     72  64  78 CALM      30.11R
$$

TNZ017-018-042-046-047-240400-
NORTHEAST TENNESSEE

CITY           SKY/WX    TMP DP  RH WIND       PRES   REMARKS
TRI CITIES     FAIR      70  64  81 CALM      30.13R
ELIZABETHTON     N/A     68  64  88 CALM      30.13S
GREENEVILLE    PTCLDY    75  64  69 NE5       30.12S
$$

TNZ012-013-036-069-073-074-240400-
CENTRAL EAST TENNESSEE

CITY           SKY/WX    TMP DP  RH WIND       PRES   REMARKS
KNOXVILLE      MOCLDY    76  64  66 N6        30.09R
OAK RIDGE      CLOUDY    75  66  73 CALM      30.11R
DOWNTOWN KNOXV   N/A     68  66  94 CALM      30.10R
GATLINBURG     MOCLDY    72  68  88 CALM      30.10R
MORRISTOWN     PTCLDY    72  64  78 N3        30.11R
JACKSBORO      CLEAR     66  64  94 CALM      30.15R
$$

TNZ083-085-099-240400-
SOUTHEAST TENNESSEE

CITY           SKY/WX    TMP DP  RH WIND       PRES   REMARKS
CHATTANOOGA    MOCLDY    79  66  64 N8        30.08R
DAYTON         MOCLDY    73  72  94 CALM      30.08R
$$

SKY/WX REPORTED AS FAIR MEANS FEW OR NO CLOUDS BELOW
12 THOUSAND FEET.





USA.gov is the U.S. government's official web portal to all federal, state and local government web resources and services.